Location: Poyales del Hoyo
(40.1725°N, 5.1660°W)
Time: 05:55:33
(UTC+00:00)

Daily predictions for brighter satellites

Satellite Brightness Start Highest point End
(mag) Time Altitude Azimuth Time Altitude Azimuth Time Altitude Azimuth
SL-16 R/B 4.0 00:06:04 26° NW 00:06:04 26° NW 00:10:06 10° N
USA 238 DEB 4.4 00:07:16 10° NW 00:12:47 53° NW 00:12:47 53° NW
USA 238 4.4 00:07:22 10° NW 00:12:54 54° NW 00:12:54 54° NW
Lacrosse 5 4.2 00:35:37 19° NNW 00:35:59 19° NNW 00:39:34 10° NNE
Cosmos 2237 Rocket 3.9 00:59:39 26° ENE 00:59:39 26° ENE 01:02:24 10° NE
Cosmos 2360 Rocket 4.3 01:10:54 17° NW 01:10:54 17° NW 01:14:15 10° N
COSMOS 2428 3.9 01:13:36 38° N 01:13:36 38° N 01:17:09 10° NNE
CZ-2D R/B 4.3 01:07:48 10° NE 01:10:23 18° ENE 01:10:23 18° ENE
Cosmos 2219 Rocket 4.0 01:23:12 24° NW 01:23:12 24° NW 01:26:37 10° N
Resurs 1-4 Rocket 4.0 01:19:19 10° NE 01:22:17 22° ENE 01:22:17 22° ENE
Cosmos 2278 Rocket 3.3 01:28:51 10° NNW 01:32:30 40° N 01:32:30 40° N
ADEOS II 3.8 01:43:35 10° NE 01:47:24 25° E 01:47:24 25° E
ATLAS 2AS CENTAUR R/B 3.1 01:49:36 59° ESE 01:49:36 59° ESE 01:56:22 10° NE
Nadezhda 4 Rocket 4.2 01:50:48 63° NNE 01:50:48 63° NNE 01:55:53 10° N
Cosmos 1943 Rocket 2.9 01:47:00 10° NNW 01:51:51 51° NE 01:51:51 51° NE
SL-16 R/B 3.5 01:54:58 32° E 01:54:58 32° E 01:59:19 10° NE
ATLAS 5 CENTAUR R/B 3.8 01:51:28 10° NNW 01:55:56 31° NE 02:01:16 10° ESE
Meteor 1-27 Rocket 4.2 02:01:01 58° NE 02:01:01 58° NE 02:05:39 10° NNE
CZ-2C R/B 3.6 02:00:14 40° E 02:00:39 40° ENE 02:05:36 10° N
SL-16 R/B 4.0 02:00:25 15° ESE 02:04:43 32° ENE 02:10:07 10° N
ALOS 4.4 02:06:52 10° NE 02:10:09 19° E 02:10:18 19° E
NPP 4.0 02:07:43 10° NNE 02:12:10 61° NNE 02:12:10 61° NNE
USA 215 3.4 02:14:11 10° NE 02:20:37 62° NW 02:21:28 57° WNW
Meteor 1-11 Rocket 4.5 02:21:16 10° NNW 02:25:03 42° NW 02:25:03 42° NW
ATLAS 3B R/B 4.3 02:29:08 10° NNW 02:36:21 38° NE 02:43:29 10° ESE
Cosmos 2026 Rocket 3.8 02:37:39 76° SW 02:38:01 80° W 02:44:26 10° N
MSX 3.8 02:32:58 10° N 02:38:35 68° WNW 02:38:35 68° WNW
Cosmos 1371 Rocket 4.0 02:34:53 10° NNW 02:39:56 79° NNE 02:39:56 79° NNE
Cosmos 1328 Rocket 4.3 02:41:11 50° ENE 02:41:11 50° ENE 02:45:06 10° NNE
Cosmos 1626 4.3 02:42:31 22° NE 02:42:31 22° NE 02:44:09 10° NNE
Cosmos 2237 Rocket 3.3 02:41:27 31° NW 02:41:27 31° NW 02:46:16 10° N
Cosmos 1092 Rocket 3.8 02:42:40 72° W 02:42:53 73° W 02:49:04 10° N
Cosmos 2344 4.2 02:35:40 10° NW 02:44:35 63° WSW 02:57:07 10° SSE
IDEFIX/ARIANE 42P 3.2 02:40:22 10° N 02:44:41 44° NW 02:44:41 44° NW
Cosmos 2369 Rocket 3.9 02:40:46 10° N 02:45:45 32° ENE 02:50:40 10° ESE
Cosmos 1151 Rocket 4.2 02:47:21 35° NNW 02:47:21 35° NNW 02:50:06 10° N
Cosmos 921 Rocket 3.8 02:48:29 46° N 02:48:29 46° N 02:51:43 10° NNE
CZ-2C R/B 3.0 02:46:07 10° NNE 02:51:31 87° WNW 02:51:58 76° SSW
Cosmos 1975 3.9 02:47:43 10° N 02:50:23 41° NNE 02:50:23 41° NNE
CZ-2D R/B 2.4 02:46:32 10° N 02:51:41 56° WNW 02:51:41 56° WNW
USA 267 3.5 02:46:41 10° ESE 02:53:06 67° NE 02:59:33 10° NW
Cosmos 1633 Rocket 3.4 02:50:33 10° N 02:54:51 59° E 02:55:02 58° E
AQUA 3.7 02:52:04 10° NNE 02:56:42 85° NNW 02:56:42 85° NNW
Cosmos 494 Rocket 3.8 03:02:00 77° SSW 03:02:23 88° WNW 03:07:32 10° NNE
Resurs 1-4 Rocket 2.7 02:58:34 10° N 03:03:21 40° WNW 03:03:21 40° WNW
Meteor 2-4 Rocket 3.5 03:04:17 66° SW 03:04:56 75° W 03:10:35 10° N
Cosmos 1943 4.2 03:03:45 27° SSE 03:06:11 40° ESE 03:11:28 10° NE
Delta 2 Rocket 4.2 03:10:33 48° SSE 03:10:33 48° SSE 03:14:53 10° ESE
Cosmos 1048 Rocket 4.0 03:09:34 57° S 03:10:38 80° ESE 03:15:54 10° NNE
UNK 4.0 03:10:15 34° SSE 03:12:09 68° ENE 03:16:45 10° N
FENGYUN 3A 3.7 03:08:13 10° N 03:13:33 62° WNW 03:14:21 55° WSW
Meteor 2-12 Rocket 4.3 03:16:18 42° SSW 03:18:30 85° W 03:24:37 10° N
SEDSat Delta rocket 4.4 03:21:55 34° S 03:22:07 34° S 03:27:37 10° ESE
USA 306 4.0 03:22:03 27° SE 03:22:10 27° SE 03:25:20 10° ENE
CZ-2C R/B 3.8 03:18:38 10° NNE 03:23:23 37° E 03:27:31 13° SSE
IRAS Rocket 4.4 03:18:16 10° N 03:23:43 56° WNW 03:25:03 45° WSW
ADEOS II 2.6 03:22:44 10° N 03:27:34 39° WNW 03:28:17 37° W
EO 1 Delta rocket 3.9 03:24:12 10° N 03:28:52 73° WNW 03:30:33 43° SSW
Cosmos 1707 4.1 03:27:10 21° SE 03:29:01 34° E 03:32:22 10° NNE
Cosmos 1842 3.6 03:32:03 36° SSE 03:33:16 56° E 03:36:57 10° NNE
Cosmos 1943 Rocket 4.0 03:31:50 10° NW 03:33:18 15° WNW 03:33:18 15° WNW
Cosmos 2266 Rocket 3.9 03:32:14 22° S 03:36:18 82° E 03:42:21 10° N
CZ-4 R/B 3.8 03:31:55 10° NNE 03:36:37 78° ESE 03:38:49 31° S
Cosmos 1110 Rocket 4.2 03:32:29 10° NNW 03:37:47 74° ENE 03:43:04 10° SSE
SL-16 R/B 3.0 03:36:50 30° W 03:38:19 34° WNW 03:43:28 10° N
SL-08 ROCKET BODY 4.5 03:35:18 18° S 03:39:52 76° E 03:45:56 10° N
ATLAS 5 CENTAUR R/B 2.4 03:34:53 10° NW 03:40:02 48° WSW 03:46:16 10° S
ATLAS 2AS CENTAUR R/B 3.8 03:37:01 23° W 03:40:34 34° NW 03:47:00 10° NNE
YAOGAN 6 3.8 03:37:50 10° NNE 03:40:55 35° E 03:42:44 20° SSE
CZ-2C R/B 3.8 03:41:43 24° W 03:41:43 24° W 03:45:20 10° NW
Cosmos 1515 Rocket 3.5 03:40:24 43° SSW 03:41:47 72° W 03:46:12 10° N
GEOS 3 Rocket 3.7 03:36:57 10° SSE 03:42:09 53° WSW 03:47:22 10° NW
S3M 4.0 03:37:55 10° N 03:44:09 84° E 03:50:27 10° S
Cosmos 1452 Rocket 3.4 03:40:56 10° NNW 03:46:13 89° WSW 03:51:27 10° SSE
ALOS 2.8 03:43:10 10° N 03:47:31 41° WNW 03:48:37 35° WSW
SL-16 R/B 2.9 03:45:30 28° SSW 03:48:06 41° W 03:53:58 10° NNW
Cosmos 1470 Rocket 3.7 03:46:00 10° NNW 03:50:19 53° W 03:52:03 32° SSW
Envisat 2.9 03:47:16 10° NNE 03:52:23 87° WNW 03:55:52 21° SSW
Cosmos 1674 2.6 04:01:58 39° SW 04:02:49 49° W 04:06:10 10° N
NOSS 3-1 (A) 4.1 03:55:15 10° NW 04:02:57 78° WSW 04:12:06 10° SSE
Cosmos 1331 Rocket 3.9 03:57:43 10° NNW 04:03:00 72° WSW 04:08:13 10° S
Meteor 1-13 Rocket 4.4 04:00:01 10° S 04:05:45 80° E 04:11:38 10° NNE
Lacrosse 5 4.5 04:02:04 10° NNW 04:05:45 19° NNE 04:09:26 10° ENE
METEOR-M 4.2 04:02:57 10° N 04:08:13 62° WNW 04:12:13 17° SSW
CZ-3 R/B 4.0 03:50:13 20° SW 04:09:07 44° S 04:18:02 10° ESE
USA 305 2.1 04:14:01 32° E 04:14:01 32° E 04:15:22 10° ENE
Cosmos 1908 3.3 04:10:08 10° N 04:13:45 71° E 04:17:20 10° SSE
DMSP B5D2-2 4.2 04:09:33 10° SSE 04:14:44 78° ENE 04:19:56 10° N
Cosmos 1626 4.1 04:15:33 11° WNW 04:15:33 11° WNW 04:16:17 10° NW
CRYOSAT 2 4.3 04:11:47 10° N 04:16:40 80° W 04:21:32 10° S
Cosmos 1933 Rocket 3.6 04:12:56 10° NNW 04:17:09 52° W 04:21:20 10° S
ISS -3.8 04:17:01 27° WSW 04:18:40 80° NW 04:22:00 10° NE
Cosmos 1470 2.7 04:15:13 10° NNW 04:18:57 57° W 04:22:38 10° S
NOAA 11 4.3 04:14:24 10° N 04:19:47 60° WNW 04:24:52 12° SSW
Cosmos 1655 Rocket 4.0 04:15:32 10° SSW 04:21:41 63° W 04:27:53 10° N
USA 276 2.5 04:21:57 22° SSW 04:23:23 43° SE 04:26:09 10° ENE
KORONAS-FOTON 4.4 04:22:06 21° SW 04:23:50 33° WNW 04:27:10 10° NNW
Cosmos 1656 Rocket 4.3 04:20:09 10° NW 04:24:47 29° WSW 04:29:24 10° SSW
ATLAS 3B R/B 3.0 04:19:50 10° NW 04:27:28 57° WSW 04:34:54 10° SSE
BREEZE-M DEB (TANK) 3.8 04:24:59 10° W 04:29:11 24° NNW 04:31:22 10° NNE
Cosmos 2369 Rocket 2.7 04:24:41 10° NW 04:29:44 36° WSW 04:34:46 10° S
Cosmos 2315 Rocket 4.0 04:23:49 10° NNW 04:29:56 64° W 04:36:03 10° S
Gbstr 26 Del rocket 4.5 04:26:29 10° NW 04:30:05 31° NNE 04:33:27 10° E
Chandra Rocket (1) 3.6 04:32:36 11° SSW 04:34:23 15° SSE 04:37:17 10° SE
Cosmos 614 Rocket 3.9 04:29:23 10° SSW 04:34:28 85° WNW 04:39:38 10° NNE
USA 267 3.8 04:30:34 10° S 04:36:20 34° SW 04:42:10 10° WNW
Cosmos 44 3.7 04:36:19 10° NNW 04:41:12 67° ENE 04:45:45 10° SE
Cosmos 1707 Rocket 3.5 04:45:59 10° S 04:50:17 87° W 04:54:38 10° N
Cosmos 1943 4.2 04:45:33 11° WSW 04:50:17 30° WNW 04:55:15 10° N
Delta 2 Rocket 4.3 04:46:03 10° W 04:50:47 41° SSW 04:55:24 10° ESE
USA 307 1.4 04:50:53 14° WSW 04:52:17 46° NW 04:54:22 10° NE
Cosmos 1939 Rocket 3.4 04:50:39 10° NNE 04:54:24 57° E 04:58:09 10° S
USA 306 3.3 04:52:31 10° WSW 04:56:04 38° NW 04:59:22 10° NE
Okean 3 4.0 04:52:05 10° S 04:56:11 62° E 05:00:17 10° NNE
Thor Agena Rocket 4.4 04:52:19 10° N 04:56:46 32° WNW 05:01:13 10° SW
YAOGAN 11 4.4 04:55:10 10° SSE 04:59:40 77° ENE 05:04:13 10° N
CZ-2C R/B 3.6 04:57:04 10° N 05:01:18 26° WNW 05:05:28 10° WSW
ASTEX 1 4.4 04:57:36 10° SSE 05:02:25 54° E 05:07:17 10° N
H-2A R/B 2.1 04:59:26 10° N 05:04:33 78° WNW 05:09:48 10° SSW
Okean 1-7 4.0 05:02:06 10° SSE 05:06:08 49° E 05:10:12 10° NNE
BREEZE-M DEB (TANK) 4.3 05:01:40 10° WNW 05:16:08 45° WSW 05:20:32 10° SSE
